| |
Missouri Department of Transportation

Social Media Facebook Twitter Flickr Instagram YouTube RSS

Current AWOS Information

 
AWOS Home - General Info for all Airports
Current AWOS for all Airports - Current METAR for all Airports
Glossary - Disclaimer - Other Links


WARSAW--WARSAW MUNICIPAL--KRAW
 
Recent AWOS History
 
06/30/15     12:12 AM CDT      05:12 GMT
Air Temperature 73°F (23°C ) 1st Cloud Layer Scattered at 6,500 feet
Dew Point 66°F (19°C) 2nd Cloud Layer  
Barometric Pressure 29.94 in Hg. 3rd Cloud Layer  
Wind Speed 4 mph (4 knots) Density Altitude 2100 feet
Peak Wind Gusts   Variable Wind Directions  
Wind Direction Quadrant(260°) Variable Visibility  
Visibility 10 statute miles  

Thunderstorm and Precipitation Identification: 
Thunderstorm Remarks: 

Current METAR Record: METAR KRAW 300520Z AUTO 27004KT 10SM SCT065 23/19 A2994 RMK AO2

 

 

 

About Us
How Do I...
Contact Us
Missouri Department of Transportation
Central Office
105 W. Capitol Avenue
Jefferson City, MO 65102
1-888-ASK-MODOT (275-6636)
1-866-831-6277 (Motor Carrier Services)
Driver's License Offices
horz_bar
| | |
Missouri State Government
© 2013 Missouri Department of Transportation. All Rights Reserved.   Privacy Policy.
 
 
 
 
RSS FeedYoutubeBlogFlickrTwitter Facebook